sat.trackr.live / text

‹ back to catalog

ICEYE-X78

NORAD 68995 · 2026-100R

PAYLOAD ACTIVE UNKNOWN

§ Identity

Operator
Country
POL
Launch date
2026-05-03
Launch site
AFWTR
Launch vehicle
Mass (kg)
RCS (m²)

External: N2YO · Heavens-Above · Gunter

§ Orbital elements

Epoch: 2026-05-25T03:13:50.628000Z

Period
96.54 min
Inclination
97.7392°
Eccentricity
0.0002135
Mean motion
14.91640778 rev/d
Perigee alt
591.3 km
Apogee alt
594.3 km
Semi-major
6,971.0 km
B*
2.6439e-4
RAAN
43.0174°
Arg perigee
160.4167°
Mean anomaly
199.7134°
Rev number
326

§ Raw data

ICEYE-X781 68995U 26100R   26145.13461375  .00002601  00000+0  26439-3 0  99992 68995  97.7392  43.0174 0002135 160.4167 199.7134 14.91640778  3263

JSON: /api/v1/satellites/68995 · /tle

For live sub-satellite position, see the globe view (requires WebGL).

§ Visibility from observer

Set your observer location to see the next 7 days of passes ≥ 10°. The values pass through the URL so the page stays shareable.

No JS? Fill the form by hand. The geolocation button needs JavaScript.